Regional Weather Roundup
Issued by NWS

Home | Current Version | Previous Version | Text Only | Print | Product List | Glossary Off
Versions: 1 2 3 4 5 6 7 8 9 10 11 12 13 14 15 16 17 18 19 20 21 22 23 24 25 26 27 28 29 30 31 32 33 34 35 36 37 38 39 40 41 42 43 44 45 46 47 48 49 50

000
ASUS43 KLSX 031757
RWRMO

WEATHER ROUNDUP FOR MISSOURI
NATIONAL WEATHER SERVICE ST LOUIS MO
100 PM CDT MON AUG 03 2015

NOTE: "FAIR" INDICATES FEW OR NO CLOUDS BELOW 12,000 FEET WITH NO
       SIGNIFICANT WEATHER AND/OR OBSTRUCTIONS TO VISIBILITY.
       CURRENT SKY AND/OR WEATHER CONDITIONS ARE NOT AVAILABLE FOR
       CHILLICOTHE AND FARMINGTON.

MOZ001>031-035>038-043-044-053-054-031900-
...NORTHERN AND WESTERN MISSOURI...

CITY           SKY/WX    TMP DP  RH WIND       PRES   REMARKS
KANSAS CTY INT PTSUNNY   81  69  67 NE17      29.98R
6HR MIN TEMP:  69; 6HR MAX TEMP:  87;

LEE`S SUMMIT   SUNNY     89  71  55 VRB6      29.97R HX  95
6HR MIN TEMP:  69; 6HR MAX TEMP:  90;

ST JOSEPH      CLOUDY    78  70  76 E9        29.95F
6HR MIN TEMP:  72; 6HR MAX TEMP:  80; 6HR PCP: TRACE;

CHILLICOTHE      N/A     74  66  76 E3        29.97F
6HR MIN TEMP:  72; 6HR MAX TEMP:  81;


$$
MOZ066>068-077>081-088>096-101>105-031900-
...SOUTHWEST MISSOURI...

CITY           SKY/WX    TMP DP  RH WIND       PRES   REMARKS
SPRINGFIELD    MOSUNNY   90  63  40 W6        29.97F HX  91
6HR MIN TEMP:  67; 6HR MAX TEMP:  90;

JOPLIN         MOSUNNY   93  65  39 SW13      29.96F HX  95
6HR MIN TEMP:  69; 6HR MAX TEMP:  93;


$$
MOZ032>034-039>042-045>050-055>058-069>072-031900-
...CENTRAL MISSOURI...

CITY           SKY/WX    TMP DP  RH WIND       PRES   REMARKS
COLUMBIA       NOT AVBL
JEFFERSON CITY MOSUNNY   87  67  51 W7        29.94R HX  90
6HR MIN TEMP:  74; 6HR MAX TEMP:  87;

ROLLA          MOSUNNY   88  69  53 W13       29.94S HX  92
6HR MIN TEMP:  70; 6HR MAX TEMP:  88;

SEDALIA        SUNNY     85  66  53 CALM      29.98R
6HR MIN TEMP:  74; 6HR MAX TEMP:  85;


$$
MOZ051-052-059>065-031900-
...EAST CENTRAL MISSOURI...

CITY           SKY/WX    TMP DP  RH WIND       PRES   REMARKS
ST LOUIS INTL  MOSUNNY   92  64  39 NW7       29.92R HX  93
6HR MIN TEMP:  77; 6HR MAX TEMP:  92;


$$
MOZ072>076-082>087-097>100-106>115-031900-
...SOUTH CENTRAL AND SOUTHEAST MISSOURI...

CITY           SKY/WX    TMP DP  RH WIND       PRES   REMARKS
CAPE GIRARDEAU SUNNY     90  73  57 SW8       29.91S HX  98
6HR MIN TEMP:  73; 6HR MAX TEMP:  90;

POPLAR BLUFF   SUNNY     92  67  43 W9        29.91F HX  95
6HR MIN TEMP:  73; 6HR MAX TEMP:  92;

WEST PLAINS    SUNNY     90  64  42 W12       29.99F HX  91
6HR MIN TEMP:  71; 6HR MAX TEMP:  91;

$$



USA.gov is the U.S. government's official web portal to all federal, state and local government web resources and services.